Change the Weather History Date:

Friday, March 1, 2013

  Actual Average Record
Temperature  
Mean Temperature 29 °F -  
Max Temperature 32 °F 41 °F 64 °F (1997)
Min Temperature 26 °F 24 °F -3 °F (1967)
Degree Days  
Heating Degree Days 36    
Moisture  
Dew Point 24 °F    
Average Humidity 82    
Maximum Humidity 93    
Minimum Humidity 72    
Precipitation  
Precipitation 0.00 in - - ()
Sea Level Pressure  
Sea Level Pressure 29.99 in    
Wind  
Wind Speed 10 mph (North)    
Max Wind Speed 13 mph    
Max Gust Speed -    
Visibility 9 miles    
Events Snow    
Averages and records for this station are not official NWS values.
T = Trace of Precipitation, MM = Missing Value Source: NWS Daily Summary

Daily Weather History Graph

Daily Weather History Graph

Search for Another Location

Airport or City:

Trip Planner

Search our weather history database for the weather conditions in past years. The results will help you decide how hot, cold, wet, or windy it might be!

Date:

Astronomy

Mar. 01, 2013 Rise Set
Actual Time 7:08 AM EST 6:26 PM EST
Civil Twilight 6:40 AM EST 6:53 PM EST
Nautical Twilight 6:09 AM EST 7:25 PM EST
Astronomical Twilight 5:37 AM EST 7:57 PM EST
Moon 11:01 PM EST (3/1) 8:52 AM EST (3/1)
Length of Visible Light 12h 12m
Length of Day
11h 17m
Waning Gibbous, 83% of the Moon is Illuminated
Mar 1
Waning Gibbous
Mar 4
Last Quarter
Mar 11
New
Mar 19
First Quarter
Mar 27
Full

Hourly Weather History & Observations

Time (EST) Temp. Windchill Dew Point Humidity Pressure Visibility Wind Dir Wind Speed Gust Speed Precip Events Conditions
12:00 AM 32.0 °F 22.5 °F 28.4 °F 87% 29.92 in 6.0 mi NNE 12.7 mph - N/A   Overcast
12:08 AM 32.0 °F 24.2 °F 28.4 °F 87% 29.92 in 3.0 mi NNE 9.2 mph - 0.00 in Snow Light Snow
12:28 AM 30.2 °F 21.9 °F 28.4 °F 93% 29.92 in 10.0 mi NNE 9.2 mph - 0.00 in   Overcast
12:53 AM 30.9 °F 22.2 °F 28.9 °F 92% 29.94 in 10.0 mi North 10.4 mph - 0.00 in   Overcast
1:11 AM 30.2 °F 21.3 °F 28.4 °F 93% 29.93 in 10.0 mi NNE 10.4 mph - N/A   Overcast
1:26 AM 30.2 °F 23.4 °F 28.4 °F 93% 29.93 in 10.0 mi North 6.9 mph - N/A   Overcast
1:53 AM 30.9 °F 24.3 °F 28.0 °F 89% 29.94 in 10.0 mi North 6.9 mph - N/A   Overcast
2:24 AM 30.2 °F 22.6 °F 28.4 °F 93% 29.93 in 10.0 mi North 8.1 mph - N/A   Overcast
2:38 AM 30.2 °F 21.9 °F 28.4 °F 93% 29.92 in 10.0 mi North 9.2 mph - N/A   Overcast
2:53 AM 30.9 °F 24.3 °F 28.0 °F 89% 29.94 in 10.0 mi North 6.9 mph - N/A   Overcast
3:25 AM 30.2 °F 21.3 °F 26.6 °F 86% 29.92 in 10.0 mi North 10.4 mph - N/A   Overcast
3:53 AM 30.9 °F 24.3 °F 26.1 °F 82% 29.94 in 10.0 mi North 6.9 mph - N/A   Overcast
4:05 AM 30.2 °F 21.3 °F 26.6 °F 86% 29.93 in 10.0 mi North 10.4 mph - N/A   Overcast
4:53 AM 30.0 °F 20.5 °F 25.0 °F 82% 29.95 in 10.0 mi North 11.5 mph - N/A   Overcast
5:53 AM 30.0 °F 21.1 °F 24.1 °F 79% 29.96 in 10.0 mi NNE 10.4 mph - N/A   Overcast
6:53 AM 30.0 °F 21.1 °F 24.1 °F 79% 29.97 in 10.0 mi North 10.4 mph - N/A   Overcast
7:53 AM 30.0 °F 21.1 °F 24.1 °F 79% 29.99 in 10.0 mi North 10.4 mph - N/A   Overcast
8:53 AM 30.0 °F 21.1 °F 24.1 °F 79% 30.01 in 8.0 mi North 10.4 mph - 0.00 in Snow Light Snow
9:53 AM 30.0 °F 20.0 °F 24.1 °F 79% 30.02 in 10.0 mi NNE 12.7 mph - 0.00 in   Overcast
10:53 AM 28.9 °F 21.1 °F 24.1 °F 82% 30.03 in 7.0 mi North 8.1 mph - 0.00 in Snow Light Snow
11:07 AM 28.4 °F 20.4 °F 24.8 °F 86% 30.01 in 7.0 mi NE 8.1 mph - 0.00 in Snow Light Snow
11:42 AM 28.4 °F 19.1 °F 24.8 °F 86% 30.02 in 9.0 mi NE 10.4 mph - 0.00 in Snow Light Snow
11:53 AM 28.9 °F 21.9 °F 24.1 °F 82% 30.04 in 9.0 mi NNE 6.9 mph - 0.00 in Snow Light Snow
12:25 PM 28.4 °F 18.0 °F 23.0 °F 80% 30.02 in 10.0 mi NNE 12.7 mph - 0.00 in   Overcast
1:53 PM 30.0 °F 20.0 °F 23.0 °F 75% 30.02 in 10.0 mi North 12.7 mph - N/A   Overcast
2:53 PM 28.9 °F 20.4 °F 21.9 °F 75% 30.02 in 10.0 mi North 9.2 mph - N/A   Overcast
3:53 PM 28.9 °F 19.2 °F 21.0 °F 72% 30.02 in 10.0 mi North 11.5 mph - N/A   Overcast
4:53 PM 28.0 °F 18.6 °F 21.0 °F 75% 30.03 in 10.0 mi North 10.4 mph - N/A   Overcast
5:53 PM 28.0 °F 19.3 °F 21.0 °F 75% 30.05 in 9.0 mi North 9.2 mph - 0.00 in   Overcast
6:24 PM 26.6 °F 15.7 °F 21.2 °F 80% 30.03 in 10.0 mi North 12.7 mph - N/A   Overcast
6:33 PM 26.6 °F 16.8 °F 21.2 °F 80% 30.03 in 10.0 mi North 10.4 mph - N/A   Overcast
6:53 PM 27.0 °F 18.0 °F 19.9 °F 75% 30.06 in 10.0 mi North 9.2 mph - N/A   Overcast
7:53 PM 27.0 °F 18.0 °F 19.9 °F 75% 30.07 in 10.0 mi North 9.2 mph - N/A   Overcast
8:53 PM 27.0 °F 17.3 °F 19.0 °F 72% 30.08 in 10.0 mi NNE 10.4 mph - N/A   Overcast
9:53 PM 27.0 °F 18.0 °F 19.0 °F 72% 30.08 in 10.0 mi North 9.2 mph - N/A   Overcast
10:53 PM 26.1 °F 17.6 °F 19.9 °F 78% 30.08 in 5.0 mi North 8.1 mph - 0.00 in Snow Light Snow
11:53 PM 26.1 °F 17.6 °F 19.9 °F 78% 30.07 in 10.0 mi North 8.1 mph - 0.00 in   Overcast